Regional Weather Roundup
Issued by NWS Midland/Odessa, TX

Home | Current Version | Previous Version | Text Only | Print | Product List | Glossary On
Versions: 1 2 3 4 5 6 7 8 9 10 11 12 13 14 15 16 17 18 19 20 21 22 23 24 25 26 27 28 29 30 31 32 33 34 35 36 37 38 39 40 41 42 43 44 45 46 47 48 49 50
000
ASUS44 KMAF 200810
RWRMAF
MIDLAND AREA WEATHER ROUNDUP
NATIONAL WEATHER SERVICE MIDLAND TX
200 AM CST MON NOV 20 2017

...IN SOUTHWEST TEXAS AND SOUTHEAST NEW MEXICO...

CITY           SKY/WX    TMP DP  RH WIND       PRES   REMARKS
ALPINE         CLEAR     37  23  56 CALM      30.20F
ANDREWS        FAIR      37  20  50 SW5       30.14F WCI  34
ARTESIA        CLOUDY    32  18  55 CALM      30.11F
BIG SPRING     PTCLDY    35  23  59 S3        30.16F
CARLSBAD       CLOUDY    35  24  64 SE5       30.10F WCI  31
DRYDEN           N/A     43  25  49 N8        30.14F WCI  38
FORT STOCKTON  CLEAR     43  24  47 S9        30.14S WCI  38
GUAD PASS      CLOUDY    40  16  37 SW20      30.14F WCI  30
HOBBS          CLOUDY    32  19  59 SW7       30.11F WCI  26
LAMESA         FAIR      34  21  60 SW8       30.14F WCI  27
MARFA          CLOUDY    28  19  69 NW6       30.18F WCI  22
MIDLAND AIRPK  CLOUDY    41  21  44 S6        30.14F WCI  38
MIDLAND INTL   CLOUDY    40  19  43 S7        30.13F WCI  35
ODESSA         CLEAR     43  21  41 S9        30.14F WCI  38
PECOS          CLEAR     38  23  53 CALM      30.13F
PRESIDIO       FAIR      49  25  39 N5        30.16S
SEMINOLE       CLOUDY    33  20  59 SW5       30.13F WCI  28
SNYDER         CLOUDY    33  25  70 S5        30.15F WCI  29
WINK           CLEAR     41  20  43 SE9       30.11F WCI  35
$$
...OTHER STATIONS IN TEXAS...

CITY           SKY/WX    TMP DP  RH WIND       PRES   REMARKS
ABILENE        CLOUDY    38  29  70 S5        30.16F WCI  34
AMARILLO       CLOUDY    37  16  42 SW13      30.04F WCI  29
AUSTIN         CLOUDY    38  36  92 CALM      30.21F
BROWNSVILLE    MOCLDY    58  47  66 N7        30.16F
CORPUS CHRISTI CLOUDY    50  34  54 NW6       30.20S
DALLAS FTW     CLOUDY    43  34  70 SW5       30.18F
DEL RIO        CLOUDY    46  33  60 NE5       30.17F
EL PASO        CLEAR     44  18  35 NE6       30.13F
HOUSTON INT    CLOUDY    45  40  82 N5        30.23R
LUBBOCK        CLOUDY    38  17  42 SW9       30.10F WCI  31
SAN ANGELO     CLOUDY    36  26  67 SW5       30.17F WCI  32
SAN ANTONIO    CLOUDY    45  37  73 CALM      30.21F
WACO           CLOUDY    36  33  89 CALM      30.22F FOG
WICHITA FALLS  CLOUDY    41  26  55 S10       30.02F WCI  35
$$
...OTHER LOCATIONS IN NEW MEXICO...

CITY           SKY/WX    TMP DP  RH WIND       PRES   REMARKS
ALAMOGORDO     CLOUDY    32  10  40 CALM      30.16S
ALBUQUERQUE    CLOUDY    34   8  33 N6        30.18S WCI  29
CANNON AFB     CLOUDY    32  16  52 SW14      30.07F WCI  22
CLOVIS         CLOUDY    35  17  47 SW15      30.06F WCI  25
HOLLOMAN AFB   CLEAR     29  11  45 N3        30.17F
ROSWELL        CLEAR     29  16  58 S7        30.10F WCI  22
RUIDOSO        CLOUDY    32   7  34 W9        30.17F WCI  24
SANTA FE       CLOUDY    23   8  52 NE8       30.16F WCI  14
TRUTH OR CONSE CLEAR     37   5  26 NW6       30.15F WCI  32
TUCUMCARI      CLEAR     40  17  39 SW15      29.99F WCI  32
$$




USA.gov is the U.S. government's official web portal to all federal, state and local government web resources and services.